Time,TemperatureF,DewpointF,PressureIn,WindDirection,WindDirectionDegrees,WindSpeedMPH,WindSpeedGustMPH,Humidity,HourlyPrecipIn,Conditions,Clouds,dailyrainin,SoftwareType,DateUTC
2014-02-16 00:52:00,13.0,8.0,-100.00,SSW,200,1.0,1.0,82,-99.99,,,-99.99,,2014-02-16 06:52:00,
2014-02-16 01:02:00,13.0,8.0,-100.00,SSW,200,1.0,1.0,82,-99.99,,,-99.99,,2014-02-16 07:02:00,
2014-02-16 01:11:00,13.0,8.0,-100.00,SSW,200,1.0,1.0,82,-99.99,,,-99.99,,2014-02-16 07:11:00,
2014-02-16 04:53:00,12.0,7.0,-100.00,SSW,195,2.0,3.0,83,-99.99,,,-99.99,,2014-02-16 10:53:00,
2014-02-16 05:02:00,12.0,7.0,-100.00,SSW,195,2.0,3.0,83,-99.99,,,-99.99,,2014-02-16 11:02:00,
2014-02-16 05:12:00,12.0,7.0,-100.00,SSW,195,2.0,3.0,83,-99.99,,,-99.99,,2014-02-16 11:12:00,
2014-02-16 05:52:00,12.0,7.0,-100.00,SSW,200,4.0,7.0,83,-99.99,,,-99.99,,2014-02-16 11:52:00,
2014-02-16 06:03:00,12.0,7.0,-100.00,SSW,200,4.0,7.0,83,-99.99,,,-99.99,,2014-02-16 12:03:00,
2014-02-16 06:12:00,12.0,7.0,-100.00,SSW,200,4.0,7.0,83,-99.99,,,-99.99,,2014-02-16 12:12:00,
2014-02-16 13:22:00,21.0,1.0,-100.00,WNW,295,1.0,5.0,43,-99.99,,,-99.99,,2014-02-16 19:22:00,
2014-02-16 13:52:00,21.0,1.0,-100.00,WNW,295,1.0,5.0,43,-99.99,,,-99.99,,2014-02-16 19:52:00,
2014-02-16 14:02:00,21.0,1.0,-100.00,WNW,295,1.0,5.0,43,-99.99,,,-99.99,,2014-02-16 20:02:00,
2014-02-16 14:11:00,21.0,1.0,-100.00,WNW,295,1.0,5.0,43,-99.99,,,-99.99,,2014-02-16 20:11:00,
2014-02-16 17:53:00,17.0,-1.0,-100.00,NNW,345,0.0,2.0,46,-99.99,,,-99.99,,2014-02-16 23:53:00,
2014-02-16 18:02:00,17.0,-1.0,-100.00,NNW,345,0.0,2.0,46,-99.99,,,-99.99,,2014-02-17 00:02:00,
2014-02-16 18:12:00,17.0,-1.0,-100.00,NNW,345,0.0,2.0,46,-99.99,,,-99.99,,2014-02-17 00:12:00,
2014-02-16 19:52:00,12.0,-1.0,-100.00,NW,315,0.0,4.0,55,-99.99,,,-99.99,,2014-02-17 01:52:00,
2014-02-16 20:01:00,12.0,-1.0,-100.00,NW,315,0.0,4.0,55,-99.99,,,-99.99,,2014-02-17 02:01:00,
2014-02-16 20:12:00,12.0,-1.0,-100.00,NW,315,0.0,4.0,55,-99.99,,,-99.99,,2014-02-17 02:12:00,
2014-02-16 21:20:00,11.0,0.0,-100.00,North,0,0.0,4.0,62,-99.99,,,-99.99,,2014-02-17 03:20:00,
2014-02-16 21:54:00,11.0,0.0,-100.00,North,0,0.0,4.0,62,-99.99,,,-99.99,,2014-02-17 03:54:00,
2014-02-16 22:03:00,11.0,0.0,-100.00,North,0,0.0,4.0,62,-99.99,,,-99.99,,2014-02-17 04:03:00,
2014-02-16 22:13:00,11.0,0.0,-100.00,North,0,0.0,4.0,62,-99.99,,,-99.99,,2014-02-17 04:13:00,
2014-02-16 22:20:00,11.0,2.0,-100.00,North,0,0.0,5.0,65,-99.99,,,-99.99,,2014-02-17 04:20:00,
2014-02-16 22:53:00,11.0,2.0,-100.00,North,0,0.0,5.0,65,-99.99,,,-99.99,,2014-02-17 04:53:00,
2014-02-16 23:02:00,11.0,2.0,-100.00,North,0,0.0,5.0,65,-99.99,,,-99.99,,2014-02-17 05:02:00,
2014-02-16 23:12:00,11.0,2.0,-100.00,North,0,0.0,5.0,65,-99.99,,,-99.99,,2014-02-17 05:12:00,
2014-02-16 23:20:00,12.0,4.0,-100.00,NNW,345,0.0,7.0,68,-99.99,,,-99.99,,2014-02-17 05:20:00,
2014-02-16 23:53:00,12.0,4.0,-100.00,NNW,345,0.0,7.0,68,-99.99,,,-99.99,,2014-02-17 05:53:00,